Starlink 35165

operational
NORAD ID: 65750 Int'l Des: 2025-216 Owner: SPXS Country: US Constellation: starlink
NOTLE

Starlink 35165について

説明を読み込み中...

リアルタイム位置

3D地球を読み込み中...

次回通過

高度履歴

Altitude vs Time

uPlot chart will show altitude changes over time

軌道要素

1 65750U 25216S 25340.47147734 .00040174 00000-0 13606-2 0 9994
2 65750 53.1608 45.7253 0001514 103.4848 256.6322 15.30213030 12246
Epoch: Dec 6, 2025 • Age: 30 hours

現在のステータス

高度 477.4 km
速度 7.63 km/s
衛星直下点 -7.19°S, 61.98°E
打ち上げ日 Sep 25, 2025
運用期間 0.1 years
タイプ internet

技術仕様

分類 Payload
質量 575.00 kg
乾燥質量 530.00 kg
総質量 575.00 kg
長さ 0.30 m
直径 4.10 m
スパン 29.00 m
形状 Box + pan
製造者 SPXS
バスタイプ Starlink V2MO
フェーズステータス In Orbit
所有者/国 SPXS/US

大規模コンステレーション

Loading constellations...